Temp
55 51 43 45 48 47 47 45 44 47 50 47 45 45 47 50 52 51 53 53 52 53 54 54 53 54 57 56 56 56 55 54 55 56 60 63 62 63 66 66 64 63 63 69
52 42 48 49 49 46 47 44 43 46 48 48 46 44 47 49 48 49 50 51 51 52 53 53 53 53 53 55 54 54 54 54 54 54 55 58 62 63 63 65 64 64 63 62
44 45 50 47 46 44 44 39 39 39 45 48 46 44 46 48 51 51 51 52 52 50 51 52 52 52 54 53 53 52 52 53 55 55 55 57 64 63 62 62 62 63 64 63
44 49 46 46 44 44 40 44 42 41 39 37 46 36 45 48 48 50 49 50 50 50 51 52 51 51 52 52 54 54 53 53 55 55 53 53 53 60 62 61 63 62 64 64
41 43 42 43 41 45 41 44 42 41 39 40 40 37 44 48 45 47 48 48 49 49 50 50 50 50 52 52 52 53 53 53 54 54 53 52 53 56 61 64 62 62 63 63
44 47 45 43 45 45 47 43 42 42 40 30 38 37 42 45 45 46 48 48 48 49 50 51 52 51 50 51 50 51 51 52 53 53 53 52 52 53 54 58 62 62 61 62
42 42 46 46 43 46 45 38 31 29 29 31 39 35 43 44 44 44 45 47 49 50 50 50 49 48 48 47 47 47 48 48 50 50 51 52 52 53 53 54 55 62 61 60
33 33 40 44 39 36 39 38 29 23 27 32 39 33 40 46 46 47 48 49 50 50 50 49 49 48 47 46 45 44 45 45 46 48 49 51 52 54 55 55 55 54 61 61
33 33 42 42 43 42 37 33 39 29 29 26 39 43 43 43 45 47 47 48 48 49 49 48 49 48 45 45 44 42 42 43 44 45 47 49 52 53 55 56 56 56 57 61
33 31 34 41 43 44 41 43 31 34 25 25 35 36 40 39 43 46 46 47 48 48 48 48 48 47 44 44 42 42 41 40 41 43 45 47 49 52 54 56 56 57 57 61
32 31 33 38 34 35 39 36 38 37 33 26 26 37 44 43 45 43 46 47 47 47 47 47 47 47 46 43 42 40 40 39 39 41 43 44 46 48 50 52 57 60 59 60
40 33 32 32 38 42 40 38 37 31 27 32 28 32 45 44 44 44 45 46 46 46 45 46 46 45 44 43 40 38 38 38 38 40 41 42 43 45 46 47 49 51 52 50
41 33 30 30 33 38 33 40 40 37 33 28 26 37 42 44 42 43 43 44 42 43 43 43 44 42 41 40 40 38 38 37 38 39 40 40 40 40 41 42 44 45 45 45
42 31 30 35 35 37 28 30 38 34 29 32 31 33 38 35 35 37 36 34 35 33 35 37 37 38 38 38 38 39 38 37 37 38 38 37 38 38 39 40 40 41 42 42
40 29 25 29 33 35 33 32 31 31 35 28 32 27 35 36 35 35 37 39 34 31 31 32 33 33 33 34 35 38 38 37 38 36 36 36 37 37 37 37 38 38 39 39
40 31 27 23 27 28 27 31 30 29 32 32 32 31 42 45 41 35 35 34 34 37 32 31 33 33 32 32 34 38 35 39 41 36 35 36 35 35 35 36 36 36 37 37
36 33 28 28 24 22 25 28 31 33 34 34 29 37 45 40 42 40 41 41 38 43 45 39 39 33 33 33 35 37 39 40 40 38 36 35 33 33 33 34 35 34 34 34
35 31 29 26 25 29 36 39 39 34 36 38 39 41 44 45 47 48 49 48 47 46 46 45 44 42 40 38 34 37 38 38 37 38 36 37 36 33 33 33 33 33 33 32
38 35 28 23 25 35 35 35 34 35 40 43 40 44 47 49 45 49 52 51 51 50 48 46 44 42 41 40 39 38 37 36 34 34 34 35 35 34 34 32 33 34 33 32
35 36 30 24 23 29 42 41 44 44 38 50 47 46 47 46 41 51 55 52 50 50 47 43 42 40 39 38 38 37 35 35 33 32 33 35 35 34 33 33 31 31 32 31
26 27 24 25 25 32 46 42 44 34 44 49 50 50 48 43 52 49 49 48 50 47 43 43 41 40 38 34 34 33 33 31 31 32 32 32 34 33 34 33 33 33 32 32
26 25 22 26 23 25 44 39 40 51 46 48 47 50 49 48 47 46 47 45 44 42 41 40 39 38 36 33 33 33 33 30 29 30 30 30 30 33 33 31 31 31 31 30
27 35 30 32 34 42 44 47 50 46 48 46 48 48 49 47 47 47 46 45 43 43 40 38 36 32 31 28 29 30 29 26 29 27 24 27 28 30 31 31 31 31 31 31
30 34 31 31 39 39 43 46 47 46 45 47 47 48 47 46 48 48 46 45 43 38 35 33 32 29 28 27 27 28 26 25 29 29 29 29 28 30 30 32 33 32 31 31
34 32 31 30 36 38 42 43 47 48 45 44 45 46 46 46 47 48 44 40 40 37 33 33 31 31 30 28 27 25 24 24 29 29 29 30 31 31 30 31 32 31 30 32
32 33 33 38 41 47 49 48 47 44 43 44 43 42 41 43 43 42 41 40 38 35 34 31 32 31 31 28 27 24 22 24 29 28 30 31 31 31 31 30 28 32 31 31
MSLP
1020.40 1019.93 1020.76 1021.30 1021.26 1021.12 1020.73 1020.36 1020.02 1020.25 1020.74 1020.33 1020.14 1020.31 1020.61 1020.89 1020.82 1020.83 1020.93 1021.09 1021.21 1021.36 1022.06 1022.36 1022.06 1021.58 1021.11 1020.55 1021.07 1021.34 1020.91 1020.80 1019.97 1019.29 1018.71 1018.63 1018.91 1019.25 1019.11 1019.46 1019.74 1020.18 1020.01 1020.78
1020.55 1021.62 1022.44 1022.08 1021.82 1021.61 1021.26 1021.01 1020.80 1020.97 1021.22 1020.77 1020.52 1020.52 1020.80 1021.08 1021.35 1021.60 1021.63 1021.73 1021.91 1022.02 1021.99 1022.24 1022.27 1022.03 1021.88 1021.02 1021.71 1021.86 1021.54 1021.16 1020.89 1020.48 1020.06 1019.69 1018.71 1018.75 1018.90 1019.22 1019.54 1019.96 1020.41 1020.70
1021.92 1023.25 1023.14 1022.71 1022.41 1022.01 1021.71 1022.16 1022.16 1021.91 1021.53 1021.25 1020.73 1019.83 1020.29 1021.04 1021.27 1021.64 1022.08 1022.34 1022.48 1022.49 1022.35 1022.32 1022.34 1022.27 1022.11 1022.29 1022.56 1022.25 1021.98 1021.71 1021.25 1021.09 1020.75 1019.68 1018.54 1018.41 1018.96 1018.94 1019.14 1019.34 1019.82 1020.49
1023.32 1023.41 1023.41 1022.78 1022.73 1023.06 1022.32 1023.00 1022.70 1022.23 1021.85 1020.69 1020.97 1019.40 1019.46 1020.35 1020.83 1021.40 1022.08 1022.56 1022.96 1023.29 1023.23 1023.14 1023.07 1023.06 1023.02 1023.03 1022.82 1022.42 1022.10 1021.84 1021.44 1021.20 1020.72 1020.17 1019.47 1018.56 1018.64 1018.38 1018.76 1019.04 1019.20 1019.55
1024.52 1024.23 1024.20 1023.70 1024.11 1023.90 1023.33 1023.31 1022.92 1022.54 1021.94 1021.49 1020.86 1020.59 1019.50 1020.25 1020.62 1021.38 1022.24 1022.86 1023.20 1023.53 1023.60 1023.35 1023.44 1023.59 1023.46 1023.38 1023.10 1022.70 1022.36 1022.04 1021.52 1021.11 1020.75 1020.24 1019.75 1019.37 1018.57 1018.11 1018.56 1018.58 1018.73 1018.84
1024.75 1025.28 1024.67 1024.79 1024.49 1024.41 1023.79 1023.21 1022.90 1022.61 1022.10 1021.46 1020.90 1020.89 1019.29 1020.04 1021.07 1021.94 1022.54 1023.04 1023.44 1023.70 1023.64 1023.63 1023.66 1023.73 1023.77 1023.65 1023.47 1023.21 1022.74 1022.30 1021.90 1021.39 1020.93 1020.61 1020.24 1019.71 1019.13 1018.38 1017.90 1018.03 1018.29 1018.51
1025.20 1025.48 1025.34 1025.57 1024.61 1024.30 1023.77 1023.15 1022.58 1022.54 1022.14 1021.18 1021.42 1021.20 1019.74 1021.33 1022.25 1022.80 1023.00 1023.22 1023.51 1023.72 1023.75 1023.81 1023.91 1023.87 1023.79 1023.95 1023.93 1023.75 1023.30 1022.65 1022.33 1022.01 1021.49 1020.97 1020.49 1019.94 1019.51 1019.06 1018.55 1017.73 1017.83 1018.10
1026.41 1026.21 1026.10 1026.20 1026.22 1025.68 1024.81 1024.45 1024.29 1023.77 1022.87 1021.83 1021.49 1020.78 1020.71 1021.77 1022.65 1023.01 1023.20 1023.33 1023.37 1023.66 1023.92 1024.04 1024.17 1024.33 1024.40 1024.20 1024.19 1024.20 1023.82 1023.33 1022.83 1022.25 1021.78 1021.25 1020.61 1019.99 1019.52 1019.09 1018.70 1018.29 1017.55 1017.70
1027.77 1027.09 1026.59 1026.57 1026.53 1026.33 1025.44 1025.24 1025.72 1025.04 1024.50 1023.33 1020.93 1020.58 1021.67 1022.29 1022.53 1022.76 1023.06 1023.32 1023.43 1023.80 1024.07 1024.23 1024.36 1024.47 1024.84 1024.84 1024.96 1024.91 1024.47 1023.95 1023.37 1022.69 1021.90 1021.20 1020.64 1020.09 1019.43 1018.95 1018.83 1018.50 1017.96 1017.27
1028.47 1028.25 1027.29 1026.80 1026.86 1026.57 1025.92 1026.02 1025.85 1025.22 1024.51 1023.01 1021.14 1020.86 1020.90 1022.00 1022.11 1022.42 1022.99 1023.40 1023.70 1024.03 1024.27 1024.41 1024.59 1024.74 1025.11 1025.12 1025.14 1024.97 1024.76 1024.40 1023.79 1023.14 1022.38 1021.51 1020.77 1020.23 1019.74 1019.14 1018.57 1018.26 1017.96 1017.53
1028.79 1029.16 1028.05 1027.38 1026.98 1026.70 1026.21 1025.94 1025.66 1025.78 1025.55 1024.72 1023.10 1020.98 1021.44 1021.95 1022.56 1022.99 1023.25 1023.75 1024.21 1024.46 1024.69 1024.79 1024.93 1024.99 1025.17 1025.49 1025.44 1025.29 1024.94 1024.61 1024.14 1023.53 1022.76 1022.01 1021.25 1020.49 1019.83 1019.23 1018.28 1017.88 1017.83 1017.77
1028.69 1028.88 1028.20 1027.75 1027.57 1027.41 1027.00 1026.41 1026.27 1025.84 1026.04 1025.70 1025.27 1022.80 1022.24 1022.71 1023.25 1023.74 1023.90 1024.21 1024.67 1025.15 1025.26 1025.37 1025.38 1025.37 1025.33 1025.43 1025.59 1025.50 1025.24 1024.90 1024.43 1023.78 1023.04 1022.36 1021.70 1021.05 1020.46 1019.94 1019.31 1018.80 1018.55 1018.52
1028.64 1028.93 1028.57 1027.95 1027.94 1027.59 1027.52 1026.90 1026.73 1026.73 1026.85 1025.90 1025.39 1022.88 1022.88 1023.31 1023.72 1024.13 1024.50 1024.88 1025.36 1025.69 1025.91 1025.97 1025.91 1025.92 1025.93 1025.86 1025.66 1025.49 1025.37 1025.11 1024.62 1024.00 1023.42 1022.85 1022.28 1021.74 1021.20 1020.79 1020.30 1019.87 1019.58 1019.65
1029.00 1029.21 1029.03 1028.40 1027.69 1027.59 1027.92 1027.66 1027.11 1027.22 1026.61 1025.45 1024.65 1023.41 1022.91 1023.30 1023.81 1024.27 1024.84 1025.40 1026.07 1026.42 1026.47 1026.61 1026.64 1026.61 1026.59 1026.47 1026.21 1025.81 1025.56 1025.42 1025.03 1024.56 1024.04 1023.52 1023.02 1022.69 1022.29 1021.79 1021.37 1021.09 1020.89 1020.82
1029.09 1029.28 1029.67 1028.75 1028.20 1027.99 1027.67 1027.39 1027.25 1026.83 1026.10 1025.61 1024.32 1024.16 1022.84 1023.23 1023.71 1024.00 1024.57 1025.16 1025.92 1026.38 1026.57 1026.73 1026.81 1026.87 1026.94 1026.93 1026.77 1026.24 1025.89 1025.64 1025.21 1025.03 1024.70 1024.34 1023.97 1023.61 1023.26 1022.79 1022.47 1022.31 1022.18 1022.06
1029.36 1029.56 1029.87 1029.06 1028.57 1028.17 1027.41 1026.87 1026.80 1026.59 1026.16 1025.12 1024.42 1023.49 1022.29 1022.42 1022.98 1023.49 1024.05 1024.73 1025.19 1025.43 1025.92 1026.33 1026.69 1026.71 1027.07 1027.10 1026.93 1026.49 1026.07 1025.70 1025.33 1025.47 1025.21 1025.00 1024.68 1024.42 1024.16 1023.83 1023.45 1023.15 1023.30 1023.27
1029.18 1029.53 1029.70 1028.80 1028.41 1027.85 1026.61 1024.53 1024.92 1024.63 1024.47 1023.82 1023.27 1021.77 1021.60 1021.99 1022.13 1022.45 1022.90 1023.52 1023.97 1024.31 1024.77 1025.55 1026.05 1026.44 1027.00 1027.29 1027.25 1026.81 1026.42 1026.25 1025.92 1025.88 1025.87 1025.64 1025.52 1025.29 1025.05 1024.82 1024.62 1023.89 1024.40 1024.22
1029.49 1029.77 1029.84 1028.85 1027.78 1026.30 1023.46 1023.31 1023.42 1023.22 1022.68 1022.24 1021.29 1020.71 1021.01 1021.29 1021.48 1021.67 1021.86 1022.16 1022.73 1023.39 1023.99 1024.69 1025.48 1026.00 1026.59 1027.10 1027.34 1027.09 1026.93 1026.72 1026.67 1026.40 1026.31 1026.02 1026.05 1025.99 1025.83 1025.55 1025.38 1025.57 1025.29 1024.75
1029.80 1029.59 1029.71 1029.63 1027.78 1024.17 1022.65 1022.67 1022.60 1022.20 1020.39 1019.79 1019.75 1019.56 1020.13 1020.58 1021.21 1020.42 1020.71 1021.19 1021.79 1022.58 1023.44 1024.33 1025.11 1025.89 1026.54 1026.94 1027.13 1027.08 1027.08 1027.21 1027.12 1027.02 1026.66 1026.52 1026.83 1026.46 1026.24 1026.42 1026.43 1026.33 1025.87 1025.62
1030.33 1030.07 1029.63 1029.64 1027.95 1024.14 1021.29 1021.38 1021.74 1021.57 1019.71 1018.33 1018.54 1018.85 1019.39 1020.31 1020.33 1019.30 1019.54 1020.54 1021.57 1022.48 1023.36 1024.34 1025.22 1025.91 1026.48 1027.00 1027.21 1027.22 1027.51 1027.50 1027.59 1027.59 1027.37 1027.29 1027.29 1027.14 1027.02 1027.17 1027.33 1026.92 1026.57 1027.10
1030.11 1030.09 1029.32 1028.72 1027.19 1023.18 1020.64 1021.13 1021.46 1020.98 1018.85 1018.01 1018.07 1018.20 1018.73 1019.30 1019.07 1019.62 1020.14 1020.83 1021.67 1022.67 1023.65 1024.46 1025.19 1025.69 1026.34 1027.16 1027.42 1027.67 1027.92 1028.07 1028.32 1028.12 1027.94 1028.01 1027.86 1027.83 1027.62 1027.69 1027.60 1027.44 1027.54 1027.90
1027.53 1027.93 1028.05 1027.88 1026.39 1022.78 1020.79 1021.53 1020.49 1018.48 1018.10 1018.13 1018.23 1018.29 1018.40 1018.66 1019.16 1019.87 1020.41 1021.16 1021.99 1022.85 1023.77 1024.51 1025.06 1025.73 1026.31 1026.96 1027.36 1027.83 1028.11 1028.38 1028.55 1028.49 1028.55 1028.49 1028.41 1028.29 1028.29 1028.16 1028.01 1027.94 1028.03 1028.12
1026.40 1024.86 1025.03 1024.53 1021.92 1020.19 1019.83 1018.64 1018.53 1018.45 1018.32 1018.35 1018.31 1018.41 1018.69 1019.03 1019.24 1019.75 1020.31 1021.11 1021.89 1022.75 1023.68 1024.54 1025.19 1025.89 1026.50 1027.07 1027.35 1027.75 1028.08 1028.46 1028.68 1028.74 1028.88 1028.85 1028.77 1028.59 1028.40 1028.19 1028.15 1028.18 1028.23 1028.35
1024.79 1024.45 1024.04 1023.42 1019.67 1019.54 1019.41 1018.56 1018.67 1018.77 1018.57 1018.46 1018.57 1018.41 1018.83 1018.90 1019.17 1019.61 1020.11 1020.70 1021.64 1022.43 1023.33 1024.26 1025.16 1025.82 1026.38 1026.80 1027.22 1027.43 1027.95 1028.42 1028.63 1028.76 1028.82 1028.80 1028.69 1028.63 1028.52 1028.40 1028.40 1028.43 1028.53 1028.59
1023.60 1023.79 1022.68 1021.59 1019.59 1019.23 1018.34 1018.19 1017.38 1017.61 1018.22 1018.34 1018.43 1018.66 1018.64 1018.85 1018.88 1019.31 1019.93 1020.48 1021.08 1021.97 1023.01 1023.76 1024.41 1025.03 1025.57 1026.20 1026.85 1027.33 1027.81 1028.34 1028.46 1028.58 1028.70 1028.69 1028.68 1028.66 1028.75 1028.73 1028.69 1028.69 1028.87 1028.71
1021.80 1020.80 1020.35 1017.95 1017.31 1017.03 1016.63 1016.35 1016.68 1017.54 1017.62 1017.58 1018.15 1018.48 1018.44 1018.55 1018.46 1018.72 1019.33 1019.90 1020.52 1021.22 1022.17 1023.07 1023.58 1024.20 1024.83 1025.51 1026.18 1026.86 1027.34 1027.80 1027.93 1028.11 1028.21 1028.31 1028.43 1028.66 1028.72 1028.89 1029.04 1029.08 1029.07 1029.06
Wind_Speed
7 9 10 13 10 6 6 7 8 3 7 4 5 5 7 8 9 9 10 11 12 12 10 10 13 13 14 14 14 14 11 11 9 5 2 2 3 6 7 7 9 7 4 8
3 11 9 4 5 4 6 8 8 0 5 7 1 2 4 7 9 10 10 11 12 12 12 13 14 14 13 15 15 14 13 12 8 6 4 4 3 3 4 6 9 11 9 8
11 6 6 4 7 8 1 9 10 7 10 6 6 9 7 3 5 8 10 10 11 13 14 15 16 16 16 14 13 13 13 12 10 8 6 6 5 2 4 5 7 9 11 11
5 3 6 5 5 10 3 9 8 6 5 4 3 4 8 7 3 8 10 10 10 12 13 12 13 14 13 13 13 12 13 12 10 11 8 8 6 5 5 5 6 7 12 13
3 6 9 8 7 8 5 9 4 5 5 6 6 6 9 7 6 7 10 10 11 11 11 13 13 13 12 12 13 12 12 12 12 12 10 8 8 6 7 5 10 9 9 11
4 1 3 6 8 5 13 5 4 3 2 3 2 5 4 3 3 5 8 9 10 11 11 12 13 13 12 13 13 13 13 12 11 12 12 11 10 10 7 8 7 6 6 7
2 2 2 6 9 2 12 6 0 3 2 3 2 5 5 5 3 5 7 7 8 9 11 12 14 14 14 14 14 13 14 14 12 12 11 11 11 10 10 8 7 6 5 5
4 1 6 8 4 5 7 6 4 5 5 6 4 5 5 3 2 3 4 6 7 9 9 11 12 12 13 14 14 13 13 13 13 12 12 10 11 7 7 7 6 6 6 6
4 2 0 2 3 4 3 5 2 3 3 4 1 4 5 2 6 6 5 5 7 9 10 11 11 11 12 12 12 12 13 13 12 12 12 11 10 10 9 10 7 6 9 3
2 5 1 1 2 2 4 1 2 1 5 6 0 4 3 4 2 3 4 5 7 8 10 10 10 10 10 12 11 11 11 12 12 12 10 10 11 10 10 10 9 8 7 5
3 1 1 2 2 3 2 1 1 2 2 4 6 2 3 3 4 4 4 4 7 8 9 9 10 10 9 9 10 11 11 12 11 11 10 9 9 10 10 9 8 7 6 6
3 2 4 1 1 2 4 1 1 2 3 2 3 7 2 1 3 5 6 4 5 6 8 9 9 10 10 10 10 10 10 11 11 11 10 9 9 9 8 8 9 9 9 9
2 1 4 3 2 2 5 5 5 2 0 6 3 2 2 3 5 6 7 5 4 4 6 8 8 9 10 10 10 10 9 10 10 10 10 9 9 10 10 10 11 11 11 11
2 1 5 4 3 3 4 6 8 7 3 2 11 13 11 5 7 6 5 4 4 3 3 4 5 6 8 9 10 10 10 10 10 10 9 9 10 10 10 10 11 12 12 12
2 3 1 9 12 10 10 9 9 14 12 7 3 6 15 10 9 8 4 2 3 4 3 3 3 3 5 7 8 9 9 10 8 10 10 10 9 9 9 10 11 12 13 13
2 2 3 6 2 4 8 12 12 12 13 16 15 23 16 5 2 1 4 5 6 4 3 3 3 2 3 5 7 9 5 9 8 9 10 10 10 9 9 9 10 12 12 13
4 2 1 5 1 5 7 8 16 7 10 7 10 10 2 2 3 4 6 8 6 5 2 3 2 1 2 3 5 7 7 7 7 7 6 6 9 9 9 8 8 13 10 11
4 3 1 6 4 4 1 2 5 10 7 18 10 12 6 4 4 5 7 9 8 6 4 3 1 0 3 2 1 3 6 6 6 7 7 9 8 7 7 7 9 9 9 12
2 3 1 3 4 10 3 5 7 8 6 20 20 16 11 5 5 13 13 12 9 7 6 4 3 3 3 3 4 4 5 5 6 8 9 9 7 6 8 8 9 8 8 12
2 3 2 1 4 5 3 5 3 2 5 7 15 12 11 7 4 4 6 10 9 7 7 7 6 4 3 3 3 4 4 5 7 8 8 7 6 7 8 8 6 7 10 9
5 5 7 6 5 11 3 9 7 1 1 3 8 10 13 11 6 4 4 5 6 6 8 8 7 4 4 4 3 3 2 4 3 4 5 4 5 4 6 6 5 6 7 6
10 10 6 5 6 10 11 8 7 1 1 2 4 8 12 11 5 4 6 6 8 9 9 8 7 6 5 5 3 3 3 3 2 3 3 3 3 2 2 3 4 5 5 6
6 6 7 12 8 2 17 3 7 2 2 3 3 5 9 8 9 9 9 9 9 10 8 7 6 5 4 4 3 4 4 4 2 2 2 2 2 2 2 3 4 4 4 3
6 3 4 1 6 17 14 15 16 8 9 3 4 5 8 10 10 11 9 10 9 8 9 7 7 7 7 6 6 4 5 5 5 5 2 1 1 2 2 2 2 3 2 3
2 9 6 7 13 9 16 15 17 15 14 11 8 9 10 9 11 11 10 10 10 9 7 9 10 9 9 8 7 6 6 7 7 6 6 5 3 3 3 2 3 3 4 2
8 10 9 9 8 5 5 5 8 14 15 15 13 12 12 11 12 9 9 10 10 10 9 9 10 9 9 10 8 8 8 9 9 8 6 5 4 4 3 4 4 6 6 6
Wind_Direction
25 55 28 18 13 4 334 323 338 25 353 320 39 56 48 48 38 39 30 30 27 31 32 16 8 7 1 22 8 4 360 359 359 353 358 271 212 225 190 184 179 186 203 199
134 45 9 349 8 347 356 352 354 276 3 296 242 104 81 51 56 41 31 28 20 12 16 14 11 7 3 13 359 352 355 352 356 354 336 294 208 196 204 206 187 197 191 179
61 22 328 346 18 350 73 12 342 313 324 259 272 228 200 138 68 57 45 35 24 14 5 5 4 7 2 1 345 344 346 340 340 345 316 306 239 197 196 200 200 194 199 201
59 1 353 357 27 351 349 355 318 304 282 323 224 343 186 159 135 52 35 28 25 16 4 2 1 360 357 354 346 344 342 338 338 340 335 335 309 251 197 175 201 203 199 204
41 7 359 15 360 331 356 330 309 308 283 311 190 263 95 168 204 31 22 21 18 16 6 358 5 358 354 353 348 343 342 338 336 339 338 335 319 316 315 214 199 198 211 213
77 330 16 339 318 302 312 295 239 268 296 235 80 273 140 159 15 355 13 17 16 10 8 7 1 358 355 353 352 346 342 339 338 335 332 324 321 318 326 314 212 204 203 206
2 18 51 358 313 188 358 345 297 212 215 351 125 260 347 118 77 4 349 359 2 359 2 0 3 356 354 354 353 346 343 339 339 330 321 317 310 309 304 306 322 230 203 206
9 204 20 4 21 331 8 2 19 308 340 337 144 247 83 103 147 332 318 329 341 356 358 356 355 359 356 351 352 347 344 338 335 330 322 312 305 296 292 293 308 310 238 209
331 229 157 48 331 322 352 39 351 286 182 249 242 154 147 193 254 267 317 317 353 357 356 353 351 355 352 352 355 346 341 337 335 330 322 318 311 306 299 296 290 292 303 194
135 283 337 32 265 224 338 36 224 181 337 310 108 280 15 198 245 308 294 333 351 354 353 351 353 351 357 350 352 345 346 340 334 333 330 323 319 309 303 296 285 270 276 266
119 280 61 280 21 348 172 91 21 295 315 318 317 69 119 165 4 323 304 332 344 347 349 350 351 351 355 353 357 352 349 345 342 337 331 332 331 327 324 326 325 301 256 264
113 309 288 303 210 310 289 279 249 304 113 253 295 283 111 114 320 301 293 302 340 343 347 349 351 350 348 358 0 355 352 347 343 339 337 346 349 353 360 5 13 28 48 46
113 166 292 209 207 198 257 222 223 108 260 230 262 294 157 238 274 280 278 289 316 336 341 340 351 357 352 354 354 356 359 354 344 345 350 2 9 12 18 26 34 41 55 53
130 278 245 281 350 29 227 232 223 195 218 225 236 288 287 249 249 248 267 251 266 279 284 317 335 345 350 349 351 354 358 1 353 352 2 11 15 21 25 34 42 47 51 60
257 265 280 276 278 276 258 255 216 216 222 221 113 259 277 284 264 249 237 228 242 271 254 277 304 332 344 347 351 348 358 359 0 9 12 17 22 28 34 42 52 54 54 53
165 298 359 280 326 275 272 258 234 237 251 261 265 281 286 282 352 295 238 218 247 254 220 264 273 297 1 348 349 347 358 6 8 23 16 24 25 29 31 45 62 62 63 62
181 222 345 271 326 302 272 229 200 196 211 201 199 226 271 276 264 238 229 216 227 252 252 188 225 240 14 359 340 1 4 9 9 28 21 40 34 35 33 33 51 63 63 64
169 148 239 287 306 260 187 138 202 215 231 218 240 239 239 268 294 267 236 227 220 218 209 203 199 143 76 25 348 359 18 19 11 27 36 37 44 50 40 40 55 66 62 64
271 179 198 291 289 298 170 195 192 192 284 214 225 239 231 232 288 269 223 219 218 197 182 165 151 125 94 52 15 26 32 37 26 20 30 36 33 39 60 54 57 64 75 62
174 270 212 153 274 262 62 150 166 177 276 197 208 224 205 160 237 266 159 198 198 176 160 160 156 144 119 86 39 34 35 41 32 15 23 25 30 50 57 59 53 61 65 78
176 192 212 202 262 280 179 144 143 272 340 163 212 198 179 191 217 100 119 165 186 168 153 148 157 168 122 113 83 77 52 68 24 7 28 24 45 51 64 66 63 78 81 89
179 161 184 174 223 273 137 130 192 30 144 177 191 206 203 202 143 154 173 159 164 165 160 172 169 175 164 140 156 163 187 130 27 34 46 22 6 36 100 114 90 83 97 90
228 204 180 201 215 118 196 255 236 359 294 210 204 201 213 210 207 191 189 183 183 182 175 171 178 162 161 161 176 187 162 153 159 64 40 47 42 44 30 84 89 88 74 92
229 157 234 72 246 233 225 239 250 256 226 245 240 180 197 214 211 209 193 190 191 187 178 165 166 181 194 186 185 197 146 154 176 189 198 155 44 86 61 78 85 101 109 111
137 147 184 254 272 272 262 240 246 239 227 230 230 225 216 210 217 215 204 196 194 190 177 176 187 196 198 182 188 172 162 167 186 190 195 198 182 177 132 80 99 103 57 49
186 183 192 227 194 185 253 211 237 223 227 227 222 226 224 208 215 193 213 200 194 191 180 189 196 194 190 182 188 177 170 179 186 191 193 194 190 181 171 151 123 95 103 100